This demonstration page uses our WeatherBlox Daily Observations layout. Learn more.

Left ArrowRight Arrow

Hourly Observations for September 5, 2020

Temp ( °F °C ) Dew Point ( °F °C ) Humidity (%) Winds ( mph kmh ) Pressure ( in mb ) Visibility ( mi km ) Precip ( " mm )
12:59 am 00:59 Partly Cloudy 79 26.1 71 21.7 77 77 ENE 6 9 30.05 1018 10 16 0.00 0.00
1:59 am 01:59 Partly Cloudy 79 26.1 71 21.7 77 77 N 6 9 30.07 1018 10 16 0.00 0.00
2:59 am 02:59 Partly Cloudy 79 26.1 70 21.1 74 74 N 9 15 30.07 1018 10 16 0.00 0.00
3:59 am 03:59 Partly Cloudy 78 25.6 70 21.1 76 76 N 7 11 30.09 1019 10 16 0.00 0.00
4:59 am 04:59 Partly Cloudy 78 25.6 66 18.9 67 67 N 10 17 30.10 1019 10 16 0.00 0.00
5:59 am 05:59 Mostly Cloudy 77 25 66 18.9 69 69 N 10 17 30.12 1020 10 16 0.00 0.00
6:59 am 06:59 Partly Cloudy 77 25 65 18.3 66 66 N 14 22 30.14 1021 10 16 0.00 0.00
7:59 am 07:59 Mostly Cloudy 76 24.4 64 17.8 67 67 NNW 13 20 30.17 1022 10 16 0.00 0.00
8:59 am 08:59 Mostly Cloudy 79 26.1 60 15.6 52 52 NNE 16 26 30.18 1022 10 16 0.00 0.00
9:59 am 09:59 Mostly Cloudy 78 25.6 58 14.4 50 50 N 18 30 30.20 1023 10 16 0.00 0.00
10:59 am 10:59 Partly Cloudy 80 26.7 57 13.9 45 45 NNE 21 33 30.21 1023 10 16 0.00 0.00
11:59 am 11:59 Mostly Cloudy 80 26.7 57 13.9 45 45 NNE 14 22 30.22 1024 10 16 0.00 0.00
12:59 pm 12:59 Partly Cloudy 80 26.7 57 13.9 45 45 N 16 26 30.22 1023 10 16 0.00 0.00
1:59 pm 13:59 Partly Cloudy 80 26.7 59 15 49 49 N 13 20 30.22 1023 10 16 0.00 0.00
2:59 pm 14:59 Mostly Cloudy 82 27.8 58 14.4 44 44 N 15 24 30.21 1023 10 16 0.00 0.00
3:59 pm 15:59 Partly Cloudy 81 27.2 58 14.4 45 45 NNE 12 19 30.20 1023 10 16 0.00 0.00
4:59 pm 16:59 Partly Cloudy 81 27.2 59 15 47 47 NNE 10 17 30.20 1023 10 16 0.00 0.00
5:59 pm 17:59 Partly Cloudy 79 26.1 60 15.6 52 52 NNE 10 17 30.20 1023 10 16 0.00 0.00
6:59 pm 18:59 Partly Cloudy 78 25.6 60 15.6 54 54 NNE 8 13 30.20 1023 10 16 0.00 0.00
7:59 pm 19:59 Partly Cloudy 76 24.4 63 17.2 64 64 NE 8 13 30.21 1023 10 16 0.00 0.00
8:59 pm 20:59 Partly Cloudy 75 23.9 63 17.2 66 66 NE 9 15 30.22 1023 10 16 0.00 0.00
9:59 pm 21:59 Mostly Cloudy 75 23.9 61 16.1 62 62 NE 7 11 30.22 1023 10 16 0.00 0.00
10:59 pm 22:59 Partly Cloudy 74 23.3 60 15.6 62 62 NE 6 9 30.22 1023 10 16 0.00 0.00
11:59 pm 23:59 Partly Cloudy 74 23.3 61 16.1 64 64 NE 7 11 30.21 1023 10 16 0.00 0.00

Powered by AerisWeather